Regional Weather Roundup
Issued by NWS

Home | Current Version | Previous Version | Text Only | Print | Product List | Glossary On
Versions: 1 2 3 4 5 6 7 8 9 10 11 12 13 14 15 16 17 18 19 20 21 22 23 24 25 26 27 28 29 30 31 32 33 34 35 36 37 38 39 40 41 42 43 44 45 46 47 48 49 50
000
ASUS43 KDTX 252110
RWRMI
MICHIGAN HOURLY REGIONAL WEATHER ROUNDUP
NATIONAL WEATHER SERVICE DETROIT/PONTIAC MI
400 PM EST SUN FEB 25 2018

NOTE: "FAIR" INDICATES FEW OR NO CLOUDS BELOW 12,000 FEET WITH NO
SIGNIFICANT WEATHER AND/OR OBSTRUCTION TO VISIBILITY.

MIZ047>049-052>055-059>063-066>070-074>076-081>083-252200-
SOUTHEAST LOWER MICHIGAN

CITY           SKY/WX    TMP DP  RH WIND       PRES   REMARKS
ADRIAN         FAIR      41  27  57 W16G28    29.95R
ALMA           PTSUNNY   40  25  54 SW16G35   29.84R WCI  32
ANN ARBOR      FAIR      43  27  53 S20G31    29.89S
BAD AXE        FAIR      42  26  53 W24G33    29.77S
CARO           FAIR      43  27  52 SW20G32   29.79R
DETROIT CITY   FAIR      44  26  49 W21G31    29.87S
DETROIT        FAIR      45  27  49 SW25G36   29.90F
FLINT          FAIR      44  25  47 SW21G30   29.83S
GROSSE ILE     FAIR      43  29  56 W17G29    29.90S
HILLSDALE      PTSUNNY   39  27  60 SW18G26   29.92R WCI  30
HOWELL         FAIR      43  28  55 SW20G31   29.85S

CITY           SKY/WX    TMP DP  RH WIND       PRES   REMARKS
JACKSON        FAIR      43  27  53 SW22G33   29.89R
LAMBERTVILLE   FAIR      42  29  59 SW18G24   29.94S
LANSING        FAIR      44  22  41 W28G38    29.87R
LAPEER         FAIR      45  25  45 SW26G33   29.81S
MASON          FAIR      44  22  42 SW12G28   29.88R
MONROE         FAIR      42  29  58 SW21G29   29.92S
MT. CLEMENS    MOSUNNY   45  30  55 SW22G31   29.84S
PONTIAC        FAIR      43  26  51 SW18G31   29.84S
PORT HOPE        N/A     43  26  51 SW16G30   29.72R
PORT HURON     FAIR      46  25  42 SW14G23   29.83S
TRI CITIES     FAIR      41  25  53 SW33G44   29.80R
MIDLAND        PTSUNNY   42  25  51 SW25G39   29.79R
TROY           FAIR      45  25  46 SW14G29   29.88S
SAGINAW HB     FAIR      41  27  56 SW25G33   29.81R
$$
MIZ043>046-050>051-056>058-064>065-071>073-077>080-252200-
SOUTHWEST LOWER MICHIGAN

CITY           SKY/WX    TMP DP  RH WIND       PRES   REMARKS
BATTLE CREEK   FAIR      44  26  49 W17G29    29.91R
BENTON HARBOR  FAIR      42  23  46 SW18G31   29.96R
BIG RAPIDS     PTSUNNY   37  20  50 SW23G33   29.80R WCI  26
COLDWATER      PTSUNNY   42  28  58 W17G29    29.94R
FREMONT        PTSUNNY   38  17  42 SW25G35   29.85R WCI  27
HOLLAND        FAIR      40  25  55 SW26G36   29.91R WCI  29
GRAND RAPIDS   FAIR      41  24  51 SW29G38   29.88R
IONIA          FAIR      42  22  44 SW22G37   29.87R
KALAMAZOO      FAIR      45  22  40 W20G28    29.93R
LUDINGTON      FAIR      37  26  64 SW20G25   29.82R WCI  26
MARSHALL       FAIR      42  24  49 SW22G30   29.91R
MOUNT PLEASANT FAIR      40  24  52 SW23G39   29.79R WCI  30
MUSKEGON       FAIR      41  26  55 SW23G32   29.89R
SOUTH HAVEN    FAIR      41  22  46 SW20G30   29.94R
$$
MIZ016>042-252200-
NORTHERN LOWER MICHIGAN

CITY           SKY/WX    TMP DP  RH WIND       PRES   REMARKS
ALPENA         FAIR      41  22  46 SW18G32   29.64R
BEAVER ISLAND  CLOUDY    31  23  72 SW23G32   29.64R WCI  18
BELLAIRE       FAIR      36  24  62 SW12G28   29.71R WCI  28
CADILLAC       FAIR      35  20  54 SW32G41   29.73R WCI  21
CHARLEVOIX     PTSUNNY   33  23  67 SW20G40   29.70R WCI  21
FRANKFORT      CLOUDY    36  24  63 SW16G26   29.76R WCI  26
GAYLORD        FAIR      34  23  64 SW25G31   29.64R WCI  21
GRAYLING       FAIR      37  20  52 SW20G32   29.68R WCI  26
HARBOR SPRINGS CLOUDY    33  22  66 SW18G30   29.66R WCI  21
HOUGHTON LAKE  FAIR      37  21  52 SW21G33   29.72R WCI  26
MANISTEE       FAIR      37  21  52 SW22G32   29.78R WCI  26
OSCODA         FAIR      42  21  41 SW32G39   29.68S
PELLSTON       CLOUDY    33  22  63 SW21G36   29.65R WCI  21
ROGERS CITY    FAIR      38  22  52 SW32G43   29.62R WCI  26
TRAVERSE CITY  FAIR      38  21  50 SW18G36   29.71R WCI  28
$$
MIZ007>008-015-252200-
EASTERN UPPER MICHIGAN

CITY           SKY/WX    TMP DP  RH WIND       PRES   REMARKS
KINROSS        CLOUDY    28  24  85 W17G26    29.57R WCI  16
NEWBERRY       CLOUDY    27  26  96 SW23G33   29.54R WCI  13
S. S. MARIE    CLOUDY    31  24  75 SW24G35   29.57R WCI  17
MUNISING         N/A     32  22  66 VRB6G20   29.54R WCI  26
$$
MIZ004>006-011>014-085-252200-
CENTRAL UPPER MICHIGAN

CITY           SKY/WX    TMP DP  RH WIND       PRES   REMARKS
MANISTIQUE     CLOUDY    28  26  94 SW15G25   29.60R WCI  16
ESCANABA       FAIR      31  22  69 SW21G33   29.61R WCI  18
MENOMINEE      CLOUDY    32  22  66 W15G22    29.68R WCI  22
SAWYER-GWINN   PTSUNNY   27  18  69 W21G35    29.52R WCI  13
$$
MIZ001>003-009>011-084-252200-
WESTERN UPPER MICHIGAN

CITY           SKY/WX    TMP DP  RH WIND       PRES   REMARKS
IRON MOUNTAIN  CLOUDY    27  18  69 W22G33    29.58R WCI  13
HOUGHTON       LGT SNOW  27  19  72 W26G48    29.45R WCI  12
COPPER HARBOR    N/A     30  21  69 NW15G35   29.43R WCI  19
IRONWOOD       FLURRIES  25  17  72 SW20G30   29.58R WCI  11
$$

ABBREVIATIONS USED IN REMARKS
   TC - TEMPERATURE IN CELSIUS
  WCI - WIND CHILL INDEX
   HX - HEAT INDEX
  VSB - VISIBILITY




USA.gov is the U.S. government's official web portal to all federal, state and local government web resources and services.